Location: Nelson
(41.2830°S, 173.2830°E)
Time: 21:58:20
(UTC+12:00)

Meteor 1-26 Rocket - Pass Details

Date: 24 January 2019
Orbit: 820 x 914 km, 81.3° (Epoch: 22 April)

Event Time Altitude Azimuth Distance (km) Brightness Sun altitude
Exits shadow 22:55:49 29° 17° (NNE) 1,575 5.1 -18.7°
Maximum altitude 22:58:44 60° 85° (E) 1,011 4.3 -19.0°
Drops below altitude 10° 23:04:24 10° 163° (SSE) 2,536 7.1 -19.7°
Sets 23:06:51 0° 166° (SSE) 3,465 7.9 -20.0°
